Weather History for Andrews, NC

Change the Weather History Date:

Thursday, April 12, 2012

  Actual Average (KTYS) Record (KTYS)
Temperature  
Mean Temperature 49 °F 58 °F  
Max Temperature 68 °F 69 °F 87 °F (1930)
Min Temperature 30 °F 46 °F 26 °F (1989)
Degree Days  
Heating Degree Days 16 8  
Month to date heating degree days 114  
Since 1 July heating degree days 3471  
Cooling Degree Days 0 1  
Month to date cooling degree days 10  
Year to date cooling degree days 15  
Moisture  
Dew Point 32 °F    
Average Humidity 60    
Maximum Humidity 100    
Minimum Humidity 26    
Precipitation  
Precipitation 0.00 in 0.13 in 2.04 in (1926)
Month to date precipitation 1.60  
Year to date precipitation 14.52  
Snow  
Snow 0.00 in 0.00 in - ()
Month to date snowfall 0.3  
Since 1 July snowfall 6.3  
Snow Depth -    
Sea Level Pressure  
Sea Level Pressure 30.18 in    
Wind  
Wind Speed 4 mph (West)    
Max Wind Speed 10 mph    
Max Gust Speed -    
Visibility 10 miles    
Events      
T = Trace of Precipitation, MM = Missing Value Source: NWS Daily Summary

Daily Weather History Graph

Daily Weather History Graph

Search for Another Location

Airport:

Trip Planner

Search our weather history database for the weather conditions in past years. The results will help you decide how hot, cold, wet, or windy it might be!

Date:

Astronomy

Apr. 12, 2012 Rise Set
Actual Time 7:06 AM EDT 8:06 PM EDT
Civil Twilight 6:40 AM EDT 8:32 PM EDT
Nautical Twilight 6:09 AM EDT 9:03 PM EDT
Astronomical Twilight 5:37 AM EDT 9:35 PM EDT
Moon 1:45 AM EDT (4/12) 12:07 PM EDT (4/12)
Length of Visible Light 13h 51m
Length of Day
12h 59m
Waning Gibbous, 59% of the Moon is Illuminated
Apr 12
Waning Gibbous
Apr 13
Last Quarter
Apr 21
New
Apr 29
First Quarter
May 5
Full

Hourly Weather History & Observations

Time (EDT) Temp. Windchill Dew Point Humidity Pressure Visibility Wind Dir Wind Speed Gust Speed Precip Events Conditions
12:15 AM 44.6 °F 41.4 °F 30.2 °F 57% 30.18 in 10.0 mi NE 5.8 mph - N/A   Unknown
12:35 AM 42.8 °F 38.0 °F 30.2 °F 61% 30.18 in 10.0 mi NNE 8.1 mph - N/A   Unknown
12:55 AM 44.6 °F 40.7 °F 28.4 °F 53% 30.17 in 10.0 mi North 6.9 mph - N/A   Unknown
1:15 AM 41.0 °F 37.1 °F 30.2 °F 65% 30.16 in 10.0 mi NNE 5.8 mph - N/A   Unknown
1:55 AM 37.4 °F 33.8 °F 32.0 °F 81% 30.16 in 10.0 mi ENE 4.6 mph - N/A   Unknown
2:15 AM 37.4 °F 33.8 °F 32.0 °F 81% 30.17 in 10.0 mi ENE 4.6 mph - N/A   Unknown
2:35 AM 35.6 °F 31.7 °F 32.0 °F 87% 30.16 in 10.0 mi East 4.6 mph - N/A   Unknown
2:55 AM 35.6 °F - 32.0 °F 87% 30.16 in 10.0 mi Calm Calm - N/A   Unknown
3:15 AM 33.8 °F - 30.2 °F 87% 30.17 in 10.0 mi Calm Calm - N/A   Unknown
3:35 AM 33.8 °F - 30.2 °F 87% 30.18 in 10.0 mi Calm Calm - N/A   Unknown
3:55 AM 32.0 °F 27.5 °F 30.2 °F 93% 30.18 in 10.0 mi NNE 4.6 mph - N/A   Unknown
4:15 AM 32.0 °F 28.7 °F 28.4 °F 87% 30.18 in 10.0 mi SSE 3.5 mph - N/A   Unknown
4:35 AM 32.0 °F - 30.2 °F 93% 30.18 in 10.0 mi Calm Calm - N/A   Unknown
4:55 AM 32.0 °F - 30.2 °F 93% 30.19 in 10.0 mi Calm Calm - N/A   Unknown
5:15 AM 32.0 °F - 28.4 °F 87% 30.20 in 10.0 mi Calm Calm - N/A   Unknown
5:35 AM 32.0 °F - 28.4 °F 87% 30.20 in 10.0 mi Calm Calm - N/A   Unknown
5:55 AM 32.0 °F - 30.2 °F 93% 30.21 in 10.0 mi Calm Calm - N/A   Unknown
6:15 AM 32.0 °F 28.7 °F 28.4 °F 87% 30.22 in 10.0 mi North 3.5 mph - N/A   Unknown
6:35 AM 30.2 °F - 28.4 °F 93% 30.22 in 10.0 mi Calm Calm - N/A   Unknown
6:55 AM 30.2 °F - 28.4 °F 93% 30.23 in 10.0 mi Calm Calm - N/A   Unknown
7:15 AM 32.0 °F - 28.4 °F 87% 30.24 in 10.0 mi Calm Calm - N/A   Unknown
7:35 AM 30.2 °F - 28.4 °F 93% 30.24 in 10.0 mi Calm Calm - N/A   Unknown
7:55 AM 32.0 °F - 30.2 °F 93% 30.25 in 10.0 mi Calm Calm - N/A   Unknown
8:15 AM 32.0 °F - 32.0 °F 100% 30.25 in 10.0 mi Calm Calm - N/A   Unknown
8:35 AM 33.8 °F - 30.2 °F 87% 30.25 in 10.0 mi Calm Calm - N/A   Unknown
8:55 AM 35.6 °F - 30.2 °F 81% 30.25 in 10.0 mi Calm Calm - N/A   Unknown
9:15 AM 37.4 °F - 32.0 °F 81% 30.24 in 10.0 mi Calm Calm - N/A   Unknown
9:35 AM 42.8 °F - 30.2 °F 61% 30.23 in 10.0 mi Calm Calm - N/A   Unknown
9:55 AM 44.6 °F - 28.4 °F 53% 30.23 in 10.0 mi Calm Calm - N/A   Unknown
10:15 AM 46.4 °F - 24.8 °F 43% 30.23 in 10.0 mi Calm Calm - N/A   Unknown
10:35 AM 50.0 °F - 30.2 °F 47% 30.24 in 10.0 mi Calm Calm - N/A   Unknown
10:55 AM 51.8 °F - 28.4 °F 41% 30.23 in 10.0 mi Calm Calm - N/A   Unknown
11:15 AM 53.6 °F - 28.4 °F 38% 30.23 in 10.0 mi Calm Calm - N/A   Unknown
11:35 AM 55.4 °F - 28.4 °F 36% 30.22 in 10.0 mi SW 4.6 mph - N/A   Unknown
11:55 AM 57.2 °F - 28.4 °F 33% 30.22 in 10.0 mi SW 3.5 mph - N/A   Unknown
12:15 PM 59.0 °F - 30.2 °F 34% 30.21 in 10.0 mi SW 4.6 mph - N/A   Unknown
12:35 PM 59.0 °F - 32.0 °F 36% 30.20 in 10.0 mi West 8.1 mph - N/A   Unknown
12:55 PM 60.8 °F - 30.2 °F 31% 30.20 in 10.0 mi West 8.1 mph - N/A   Unknown
1:15 PM 60.8 °F - 30.2 °F 31% 30.20 in 10.0 mi WSW 8.1 mph - N/A   Unknown
1:35 PM 60.8 °F - 32.0 °F 34% 30.19 in 10.0 mi West 8.1 mph - N/A   Unknown
1:55 PM 62.6 °F - 30.2 °F 30% 30.18 in 10.0 mi WNW 8.1 mph - N/A   Unknown
2:15 PM 62.6 °F - 32.0 °F 32% 30.17 in 10.0 mi WSW 6.9 mph - N/A   Unknown
2:35 PM 64.4 °F - 33.8 °F 32% 30.17 in 10.0 mi WSW 6.9 mph - N/A   Unknown
2:55 PM 64.4 °F - 32.0 °F 30% 30.16 in 10.0 mi SW 4.6 mph - N/A   Unknown
3:15 PM 64.4 °F - 32.0 °F 30% 30.14 in 10.0 mi SSW 6.9 mph - N/A   Unknown
3:35 PM 66.2 °F - 32.0 °F 28% 30.13 in 10.0 mi West 6.9 mph - N/A   Unknown
3:55 PM 64.4 °F - 32.0 °F 30% 30.11 in 10.0 mi West 4.6 mph - N/A   Unknown
4:15 PM 66.2 °F - 32.0 °F 28% 30.11 in 10.0 mi SW 6.9 mph - N/A   Unknown
4:35 PM 66.2 °F - 32.0 °F 28% 30.10 in 10.0 mi West 6.9 mph - N/A   Unknown
4:55 PM 68.0 °F - 33.8 °F 28% 30.11 in 10.0 mi West 6.9 mph - N/A   Unknown
5:15 PM 68.0 °F - 32.0 °F 26% 30.11 in 10.0 mi West 6.9 mph - N/A   Unknown
5:35 PM 66.2 °F - 32.0 °F 28% 30.11 in 10.0 mi West 10.4 mph - N/A   Unknown
5:55 PM 66.2 °F - 32.0 °F 28% 30.11 in 10.0 mi West 10.4 mph - N/A   Unknown
6:15 PM 66.2 °F - 33.8 °F 30% 30.11 in 10.0 mi WSW 10.4 mph - N/A   Unknown
6:35 PM 64.4 °F - 33.8 °F 32% 30.11 in 10.0 mi West 9.2 mph - N/A   Unknown
6:55 PM 64.4 °F - 33.8 °F 32% 30.11 in 10.0 mi West 8.1 mph - N/A   Unknown
7:15 PM 62.6 °F - 35.6 °F 37% 30.11 in 10.0 mi WSW 6.9 mph - N/A   Unknown
7:35 PM 59.0 °F - 37.4 °F 45% 30.11 in 10.0 mi West 3.5 mph - N/A   Unknown
7:55 PM 57.2 °F - 39.2 °F 51% 30.11 in 10.0 mi Calm Calm - N/A   Unknown
8:15 PM 55.4 °F - 37.4 °F 51% 30.11 in 10.0 mi Calm Calm - N/A   Unknown
8:35 PM 53.6 °F - 39.2 °F 58% 30.12 in 10.0 mi Calm Calm - N/A   Unknown
8:55 PM 51.8 °F - 39.2 °F 62% 30.13 in 10.0 mi Calm Calm - N/A   Unknown
9:15 PM 50.0 °F - 37.4 °F 62% 30.14 in 10.0 mi Calm Calm - N/A   Unknown
9:35 PM 50.0 °F - 37.4 °F 62% 30.15 in 10.0 mi Calm Calm - N/A   Unknown
9:55 PM 46.4 °F - 37.4 °F 71% 30.16 in 10.0 mi Calm Calm - N/A   Unknown
10:15 PM 46.4 °F 45.2 °F 37.4 °F 71% 30.17 in 10.0 mi North 3.5 mph - N/A   Unknown
10:35 PM 44.6 °F - 37.4 °F 76% 30.18 in 10.0 mi Calm Calm - N/A   Unknown
10:55 PM 42.8 °F - 37.4 °F 81% 30.18 in 10.0 mi Calm Calm - N/A   Unknown
11:15 PM 42.8 °F - 37.4 °F 81% 30.18 in 10.0 mi Calm Calm - N/A   Unknown
11:35 PM 42.8 °F - 37.4 °F 81% 30.18 in 10.0 mi Calm Calm - N/A   Unknown
11:55 PM 41.0 °F - 35.6 °F 81% 30.18 in 10.0 mi Calm Calm - N/A   Unknown